Satellite: NOAA-17
Catalog number: 27453
Epoch time:      12235.75271775
Element set:    0809
Inclination:      098.3330 deg
RA of node:       259.4192 deg
Eccentricity:    0.0011112
Arg of perigee:   326.0892 deg
Mean anomaly:     033.9570 deg
Mean motion:   14.24472389 rev/day
Decay rate:       1.07e-06 rev/day^2
Epoch rev:           52823
Checksum:              303

Satellite: NOAA-18
Catalog number: 28654
Epoch time:      12235.69008965
Element set:    0292
Inclination:      099.0533 deg
RA of node:       194.3533 deg
Eccentricity:    0.0014100
Arg of perigee:   331.9003 deg
Mean anomaly:     028.1403 deg
Mean motion:   14.11686914 rev/day
Decay rate:       -7.1e-07 rev/day^2
Epoch rev:           37394
Checksum:              290

Satellite: NOAA-19
Catalog number: 33591
Epoch time:      12235.71292302
Element set:    0481
Inclination:      098.8663 deg
RA of node:       174.6871 deg
Eccentricity:    0.0013604
Arg of perigee:   189.8622 deg
Mean anomaly:     170.2280 deg
Mean motion:   14.11373225 rev/day
Decay rate:      -1.07e-06 rev/day^2
Epoch rev:           18239
Checksum:              298

/EX
SB KEPS @ AMSAT  $ORB12236.M
Orbital Elements  12236.MISC

HR AMSAT ORBITAL ELEMENTS FOR MANNED AND MISCELLANEOUS SATELLITES
FROM WA5QGD FORT WORTH,TX August 23, 2012
Send SUBSCRIBE KEPS/UNSUBSCRIBE KEPS to majordomo@amsat.org only
BID: ORB12236.M
TO ALL RADIO AMATEURS BT

Satellite: HUBBLE
Catalog number: 20580
Epoch time:      12234.94550393
Element set:      57
Inclination:      028.4707 deg
RA of node:       073.1580 deg
Eccentricity:    0.0003091
Arg of perigee:   042.7334 deg
Mean anomaly:     317.3482 deg
Mean motion:   15.02700656 rev/day
Decay rate:      1.009e-05 rev/day^2
Epoch rev:            2463
Checksum:              258

Satellite: ISS
Catalog number: 25544
Epoch time:      12236.87676541
Element set:     166
Inclination:      051.6470 deg
RA of node:       144.4435 deg
Eccentricity:    0.0014946
Arg of perigee:   353.5533 deg
Mean anomaly:     123.2691 deg
Mean motion:   15.50059634 rev/day
Decay rate:      1.686e-05 rev/day^2
Epoch rev:           78854
Checksum:              313

Satellite: CO-58
Catalog number: 28895
Epoch time:      12235.59870461
Element set:    0259
Inclination:      097.9058 deg
RA of node:       098.9223 deg
Eccentricity:    0.0016857
Arg of perigee:   306.1371 deg
Mean anomaly:     053.8293 deg
Mean motion:   14.60712224 rev/day
Decay rate:       5.21e-06 rev/day^2
Epoch rev:           36335
Checksum:              330

Satellite: FALCON
Catalog number: 30776
Epoch time:      12235.40633900
Element set:    0430
Inclination:      035.4352 deg
RA of node:       232.2498 deg
Eccentricity:    0.0002603
Arg of perigee:   261.4381 deg
Mean anomaly:     098.6043 deg
Mean motion:   15.07969461 rev/day
Decay rate:      1.876e-05 rev/day^2
Epoch rev:           30025
Checksum:              274

Satellite: MAST
Catalog number: 31126
Epoch time:      12235.96555361
Element set:    0552
Inclination:      097.8745 deg
RA of node:       243.1648 deg
Eccentricity:    0.0092498
Arg of perigee:   262.6241 deg
Mean anomaly:     096.4438 deg
Mean motion:   14.54230109 rev/day
Decay rate:       2.53e-06 rev/day^2
Epoch rev:           28397
Checksum:              312

Satellite: CAPE1
Catalog number: 31130
Epoch time:      12236.53898561
Element set:     549
Inclination:      097.8837 deg
RA of node:       240.0525 deg
Eccentricity:    0.0100181
Arg of perigee:   274.4988 deg
Mean anomaly:     084.4767 deg
Mean motion:   14.53034513 rev/day
Decay rate:       4.34e-06 rev/day^2
Epoch rev:           28355
Checksum:              307

Satellite: COMPASS
Catalog number: 32787
Epoch time:      12236.82730754
Element set:     389
Inclination:      097.7943 deg
RA of node:       296.6546 deg
Eccentricity:    0.0014991
Arg of perigee:   194.6164 deg
Mean anomaly:     165.4563 deg
Mean motion:   14.84225989 rev/day
Decay rate:       9.53e-06 rev/day^2
Epoch rev:           23384
Checksum:              357

Satellite: AAUSAT2
Catalog number: 32788
Epoch time:      12236.84924244
Element set:     382
Inclination:      097.7955 deg
RA of node:       297.0956 deg
Eccentricity:    0.0014394
Arg of perigee:   194.0356 deg
Mean anomaly:     166.0449 deg
Mean motion:   14.84563105 rev/day
Decay rate:       6.39e-06 rev/day^2
Epoch rev:           23387
Checksum:              340

Satellite: DO-64
Catalog number: 32789
Epoch time:      12235.74796000
Element set:    0399
Inclination:      097.8061 deg
RA of node:       298.3027 deg
Eccentricity:    0.0014420
Arg of perigee:   194.5780 deg
Mean anomaly:     165.5014 deg
Mean motion:   14.86208810 rev/day
Decay rate:      2.419e-05 rev/day^2
Epoch rev:           23376
Checksum:              319

Satellite: CO-66
Catalog number: 32791
Epoch time:      12236.70957796
Element set:     380
Inclination:      097.7941 deg
RA of node:       296.2253 deg
Eccentricity:    0.0015259
Arg of perigee:   195.4389 deg
Mean anomaly:     164.6356 deg
Mean motion:   14.83600322 rev/day
Decay rate:       3.87e-06 rev/day^2
Epoch rev:           23375
Checksum:              344

